Location: Geroldsau
(48.7259°N, 8.2466°E)
Time: 18:46:57
(UTC+00:00)

FALCON 9 DEB - Pass Details

Date: 01 November 2021
Orbit: 337 x 349 km, 53.0° (Epoch: 30 November)

Event Time Altitude Azimuth Distance (km) Brightness Sun altitude
Rises 18:20:44 0° 282° (WNW) 2,177 8.1 -22.5°
Reaches altitude 10° 18:22:52 10° 292° (WNW) 1,337 6.6 -22.8°
Enters shadow 18:24:31 25° 316° (NW) 782 4.9 -23.1°
